This is the latest recevied weather packets stored in our database for station/object KK7KRZ. If no packets are shown the sender has not sent any weather packets the latest 10 day(s).
| Time | Temp. | Humidity | Pressure | Rain* | Wind** | Luminosity | Snow |
|---|---|---|---|---|---|---|---|
| 1777937365 | 21.67° C | 67% | 1011.3 hPa | 0 mm | - | 42 W/m² | - |
| 1777937063 | 22.22° C | 66% | 1011.2 hPa | 0 mm | - | 45 W/m² | - |
| 1777936759 | 22.22° C | 66% | 1011.3 hPa | 0 mm | - | 45 W/m² | - |
| 1777936455 | 21.67° C | 66% | 1011.1 hPa | 0 mm | - | 48 W/m² | - |
| 1777936152 | 21.67° C | 64% | 1011.1 hPa | 0 mm | - | 510 W/m² | - |
| 1777935849 | 21.67° C | 64% | 1011.3 hPa | 0 mm | - | 510 W/m² | - |
| 1777935548 | 21.67° C | 64% | 1011.4 hPa | 0 mm | - | 510 W/m² | - |
| 1777935244 | 22.22° C | 64% | 1011.6 hPa | 0 mm | - | 534 W/m² | - |
| 1777934942 | 22.22° C | 64% | 1011.5 hPa | 0 mm | - | 559 W/m² | - |
| 1777934638 | 22.22° C | 65% | 1011.4 hPa | 0 mm | - | 562 W/m² | - |
| 1777934335 | 22.22° C | 60% | 1011.7 hPa | 0 mm | - | 581 W/m² | - |
| 1777934031 | 21.67° C | 63% | 1011.6 hPa | 0 mm | - | 603 W/m² | - |
| 1777933727 | 21.67° C | 63% | 1011.8 hPa | 0 mm | - | 593 W/m² | - |
| 1777933424 | 21.67° C | 62% | 1011.9 hPa | 0 mm | - | 567 W/m² | - |
| 1777933123 | 22.78° C | 61% | 1011.8 hPa | 0 mm | - | 573 W/m² | - |
| 1777932819 | 23.89° C | 58% | 1011.9 hPa | 0 mm | - | 595 W/m² | - |
| 1777932516 | 22.78° C | 63% | 1011.9 hPa | 0 mm | - | 620 W/m² | - |
| 1777932213 | 22.78° C | 61% | 1012 hPa | 0 mm | - | 632 W/m² | - |
| 1777931910 | 22.78° C | 59% | 1012 hPa | 0 mm | - | 570 W/m² | - |
| 1777931606 | 22.78° C | 61% | 1012.2 hPa | 0 mm | - | 462 W/m² | - |
| 1777931303 | 21.67° C | 63% | 1012.2 hPa | 0 mm | - | 508 W/m² | - |
| 1777931000 | 21.67° C | 63% | 1012.4 hPa | 0 mm | - | 590 W/m² | - |
| 1777930696 | 21.67° C | 64% | 1012.3 hPa | 0 mm | - | 596 W/m² | - |
| 1777930392 | 22.22° C | 64% | 1012.3 hPa | 0 mm | - | 610 W/m² | - |
| 1777930090 | 21.11° C | 68% | 1012.4 hPa | 0 mm | - | 619 W/m² | - |
* Rain latest hour (hover to see other rain measurements)
** Current wind speed in m/s (hover to see current wind gust speed)